Year,Month,Day,Hour,Minute,Value (Times are PST for temperature in C)
2009,07,31,00,00,25.10
2009,07,31,00,01,25.10
2009,07,31,00,02,25.10
2009,07,31,00,03,25.10
2009,07,31,00,04,25.00
2009,07,31,00,05,25.00
2009,07,31,00,06,24.90
2009,07,31,00,07,24.90
2009,07,31,00,08,24.90
2009,07,31,00,09,24.90
2009,07,31,00,10,24.90
2009,07,31,00,11,24.90
2009,07,31,00,12,24.90
2009,07,31,00,13,24.90
2009,07,31,00,14,24.90
2009,07,31,00,15,24.90
2009,07,31,00,16,25.00
2009,07,31,00,17,25.00
2009,07,31,00,18,25.00
2009,07,31,00,19,25.10
2009,07,31,00,20,25.10
2009,07,31,00,21,25.10
2009,07,31,00,22,25.10
2009,07,31,00,23,25.20
2009,07,31,00,24,25.20
2009,07,31,00,25,25.20
2009,07,31,00,26,25.30
2009,07,31,00,27,25.30
2009,07,31,00,28,25.30
2009,07,31,00,29,25.30
2009,07,31,00,30,25.30
2009,07,31,00,31,25.30
2009,07,31,00,32,25.30
2009,07,31,00,33,25.30
2009,07,31,00,34,25.30
2009,07,31,00,35,25.30
2009,07,31,00,36,25.20
2009,07,31,00,37,25.20
2009,07,31,00,38,25.20
2009,07,31,00,39,25.10
2009,07,31,00,40,25.10
2009,07,31,00,41,25.00
2009,07,31,00,42,24.90
2009,07,31,00,43,24.90
2009,07,31,00,44,24.80
2009,07,31,00,45,24.80
2009,07,31,00,46,24.70
2009,07,31,00,47,24.60
2009,07,31,00,48,24.60
2009,07,31,00,49,24.50
2009,07,31,00,50,24.50
2009,07,31,00,51,24.40
2009,07,31,00,52,24.40
2009,07,31,00,53,24.40
2009,07,31,00,54,24.30
2009,07,31,00,55,24.30
2009,07,31,00,56,24.30
2009,07,31,00,57,24.30
2009,07,31,00,58,24.30
2009,07,31,00,59,24.30
2009,07,31,01,00,24.20
2009,07,31,01,01,24.20
2009,07,31,01,02,24.20
2009,07,31,01,03,24.20
2009,07,31,01,04,24.30
2009,07,31,01,05,24.30
2009,07,31,01,06,24.30
2009,07,31,01,07,24.30
2009,07,31,01,08,24.30
2009,07,31,01,09,24.30
2009,07,31,01,10,24.30
2009,07,31,01,11,24.30
2009,07,31,01,12,24.40
2009,07,31,01,13,24.40
2009,07,31,01,14,24.40
2009,07,31,01,15,24.40
2009,07,31,01,16,24.40
2009,07,31,01,17,24.50
2009,07,31,01,18,24.50
2009,07,31,01,19,24.50
2009,07,31,01,20,24.50
2009,07,31,01,21,24.50
2009,07,31,01,22,24.60
2009,07,31,01,23,24.60
2009,07,31,01,24,24.50
2009,07,31,01,25,24.50
2009,07,31,01,26,24.50
2009,07,31,01,27,24.50
2009,07,31,01,28,24.50
2009,07,31,01,29,24.40
2009,07,31,01,30,24.40
2009,07,31,01,31,24.40
2009,07,31,01,32,24.40
2009,07,31,01,33,24.40
2009,07,31,01,34,24.40
2009,07,31,01,35,24.40
2009,07,31,01,36,24.40
2009,07,31,01,37,24.30
2009,07,31,01,38,24.30
2009,07,31,01,39,24.30
2009,07,31,01,40,24.40
2009,07,31,01,41,24.40
2009,07,31,01,42,24.40
2009,07,31,01,43,24.40
2009,07,31,01,44,24.40
2009,07,31,01,45,24.40
2009,07,31,01,46,24.40
2009,07,31,01,47,24.40
2009,07,31,01,48,24.40
2009,07,31,01,49,24.40
2009,07,31,01,50,24.40
2009,07,31,01,51,24.40
2009,07,31,01,52,24.40
2009,07,31,01,53,24.50
2009,07,31,01,54,24.40
2009,07,31,01,55,24.50
2009,07,31,01,56,24.50
2009,07,31,01,57,24.50
2009,07,31,01,58,24.50
2009,07,31,01,59,24.50
2009,07,31,02,00,24.50
2009,07,31,02,01,24.50
2009,07,31,02,02,24.40
2009,07,31,02,03,24.40
2009,07,31,02,04,24.40
2009,07,31,02,05,24.40
2009,07,31,02,06,24.40
2009,07,31,02,07,24.30
2009,07,31,02,08,24.30
2009,07,31,02,09,24.30
2009,07,31,02,10,24.20
2009,07,31,02,11,24.20
2009,07,31,02,12,24.20
2009,07,31,02,13,24.10
2009,07,31,02,14,24.10
2009,07,31,02,15,24.10
2009,07,31,02,16,24.00
2009,07,31,02,17,24.00
2009,07,31,02,18,23.90
2009,07,31,02,19,23.90
2009,07,31,02,20,23.80
2009,07,31,02,21,23.80
2009,07,31,02,22,23.80
2009,07,31,02,23,23.70
2009,07,31,02,24,23.70
2009,07,31,02,25,23.70
2009,07,31,02,26,23.60
2009,07,31,02,27,23.60
2009,07,31,02,28,23.60
2009,07,31,02,29,23.60
2009,07,31,02,30,23.50
2009,07,31,02,31,23.50
2009,07,31,02,32,23.40
2009,07,31,02,33,23.40
2009,07,31,02,34,23.40
2009,07,31,02,35,23.30
2009,07,31,02,36,23.30
2009,07,31,02,37,23.30
2009,07,31,02,38,23.40
2009,07,31,02,39,23.40
2009,07,31,02,40,23.40
2009,07,31,02,41,23.40
2009,07,31,02,42,23.40
2009,07,31,02,43,23.40
2009,07,31,02,44,23.40
2009,07,31,02,45,23.30
2009,07,31,02,46,23.30
2009,07,31,02,47,23.30
2009,07,31,02,48,23.30
2009,07,31,02,49,23.30
2009,07,31,02,50,23.30
2009,07,31,02,51,23.30
2009,07,31,02,52,23.30
2009,07,31,02,53,23.30
2009,07,31,02,54,23.30
2009,07,31,02,55,23.20
2009,07,31,02,56,23.20
2009,07,31,02,57,23.20
2009,07,31,02,58,23.20
2009,07,31,02,59,23.20
2009,07,31,03,00,23.10
2009,07,31,03,01,23.10
2009,07,31,03,02,23.10
2009,07,31,03,03,23.00
2009,07,31,03,04,23.00
2009,07,31,03,05,23.00
2009,07,31,03,06,22.90
2009,07,31,03,07,22.90
2009,07,31,03,08,22.80
2009,07,31,03,09,22.80
2009,07,31,03,10,22.80
2009,07,31,03,11,22.80
2009,07,31,03,12,22.80
2009,07,31,03,13,22.80
2009,07,31,03,14,22.80
2009,07,31,03,15,22.70
2009,07,31,03,16,22.70
2009,07,31,03,17,22.70
2009,07,31,03,18,22.70
2009,07,31,03,19,22.60
2009,07,31,03,20,22.60
2009,07,31,03,21,22.60
2009,07,31,03,22,22.50
2009,07,31,03,23,22.50
2009,07,31,03,24,22.50
2009,07,31,03,25,22.40
2009,07,31,03,26,22.40
2009,07,31,03,27,22.40
2009,07,31,03,28,22.30
2009,07,31,03,29,22.30
2009,07,31,03,30,22.30
2009,07,31,03,31,22.20
2009,07,31,03,32,22.20
2009,07,31,03,33,22.20
2009,07,31,03,34,22.10
2009,07,31,03,35,22.10
2009,07,31,03,36,22.10
2009,07,31,03,37,22.10
2009,07,31,03,38,22.00
2009,07,31,03,39,22.00
2009,07,31,03,40,22.00
2009,07,31,03,41,21.90
2009,07,31,03,42,21.90
2009,07,31,03,43,21.90
2009,07,31,03,44,21.90
2009,07,31,03,45,21.80
2009,07,31,03,46,21.80
2009,07,31,03,47,21.80
2009,07,31,03,48,21.80
2009,07,31,03,49,21.80
2009,07,31,03,50,21.80
2009,07,31,03,51,21.80
2009,07,31,03,52,21.70
2009,07,31,03,53,21.70
2009,07,31,03,54,21.70
2009,07,31,03,55,21.70
2009,07,31,03,56,21.70
2009,07,31,03,57,21.70
2009,07,31,03,58,21.70
2009,07,31,03,59,21.70
2009,07,31,04,00,21.70
2009,07,31,04,01,21.70
2009,07,31,04,02,21.70
2009,07,31,04,03,21.70
2009,07,31,04,04,21.70
2009,07,31,04,05,21.70
2009,07,31,04,06,21.70
2009,07,31,04,07,21.60
2009,07,31,04,08,21.60
2009,07,31,04,09,21.60
2009,07,31,04,10,21.60
2009,07,31,04,11,21.60
2009,07,31,04,12,21.60
2009,07,31,04,13,21.60
2009,07,31,04,14,21.60
2009,07,31,04,15,21.60
2009,07,31,04,16,21.60
2009,07,31,04,17,21.60
2009,07,31,04,18,21.60
2009,07,31,04,19,21.60
2009,07,31,04,20,21.60
2009,07,31,04,21,21.70
2009,07,31,04,22,21.70
2009,07,31,04,23,21.70
2009,07,31,04,24,21.80
2009,07,31,04,25,21.80
2009,07,31,04,26,21.80
2009,07,31,04,27,21.80
2009,07,31,04,28,21.80
2009,07,31,04,29,21.80
2009,07,31,04,30,21.90
2009,07,31,04,31,21.90
2009,07,31,04,32,21.90
2009,07,31,04,33,21.90
2009,07,31,04,34,21.90
2009,07,31,04,35,21.90
2009,07,31,04,36,21.90
2009,07,31,04,37,21.80
2009,07,31,04,38,21.80
2009,07,31,04,39,21.70
2009,07,31,04,40,21.60
2009,07,31,04,41,21.50
2009,07,31,04,42,21.40
2009,07,31,04,43,21.40
2009,07,31,04,44,21.30
2009,07,31,04,45,21.20
2009,07,31,04,46,21.00
2009,07,31,04,47,21.00
2009,07,31,04,48,20.90
2009,07,31,04,49,20.80
2009,07,31,04,50,20.70
2009,07,31,04,51,20.70
2009,07,31,04,52,20.70
2009,07,31,04,53,20.60
2009,07,31,04,54,20.60
2009,07,31,04,55,20.60
2009,07,31,04,56,20.50
2009,07,31,04,57,20.50
2009,07,31,04,58,20.50
2009,07,31,04,59,20.40
2009,07,31,05,00,20.40
2009,07,31,05,01,20.40
2009,07,31,05,02,20.40
2009,07,31,05,03,20.30
2009,07,31,05,04,20.30
2009,07,31,05,05,20.30
2009,07,31,05,06,20.30
2009,07,31,05,07,20.30
2009,07,31,05,08,20.30
2009,07,31,05,09,20.30
2009,07,31,05,10,20.20
2009,07,31,05,11,20.20
2009,07,31,05,12,20.20
2009,07,31,05,13,20.20
2009,07,31,05,14,20.20
2009,07,31,05,15,20.20
2009,07,31,05,16,20.20
2009,07,31,05,17,20.20
2009,07,31,05,18,20.20
2009,07,31,05,19,20.20
2009,07,31,05,20,20.20
2009,07,31,05,21,20.20
2009,07,31,05,22,20.20
2009,07,31,05,23,20.20
2009,07,31,05,24,20.20
2009,07,31,05,25,20.20
2009,07,31,05,26,20.20
2009,07,31,05,27,20.20
2009,07,31,05,28,20.20
2009,07,31,05,29,20.20
2009,07,31,05,30,20.20
2009,07,31,05,31,20.20
2009,07,31,05,32,20.20
2009,07,31,05,33,20.20
2009,07,31,05,34,20.20
2009,07,31,05,35,20.10
2009,07,31,05,36,20.10
2009,07,31,05,37,20.10
2009,07,31,05,38,20.00
2009,07,31,05,39,20.00
2009,07,31,05,40,20.00
2009,07,31,05,41,19.90
2009,07,31,05,42,19.90
2009,07,31,05,43,19.90
2009,07,31,05,44,19.80
2009,07,31,05,45,19.80
2009,07,31,05,46,19.80
2009,07,31,05,47,19.70
2009,07,31,05,48,19.70
2009,07,31,05,49,19.70
2009,07,31,05,50,19.60
2009,07,31,05,51,19.60
2009,07,31,05,52,19.60
2009,07,31,05,53,19.50
2009,07,31,05,54,19.50
2009,07,31,05,55,19.50
2009,07,31,05,56,19.40
2009,07,31,05,57,19.40
2009,07,31,05,58,19.40
2009,07,31,05,59,19.30
2009,07,31,06,00,19.30
2009,07,31,06,01,19.30
2009,07,31,06,02,19.20
2009,07,31,06,03,19.20
2009,07,31,06,04,19.20
2009,07,31,06,05,19.10
2009,07,31,06,06,19.10
2009,07,31,06,07,19.10
2009,07,31,06,08,19.00
2009,07,31,06,09,19.00
2009,07,31,06,10,18.90
2009,07,31,06,11,18.90
2009,07,31,06,12,18.90
2009,07,31,06,13,18.90
2009,07,31,06,14,18.90
2009,07,31,06,15,18.90
2009,07,31,06,16,18.90
2009,07,31,06,17,18.90
2009,07,31,06,18,18.90
2009,07,31,06,19,18.90
2009,07,31,06,20,18.90
2009,07,31,06,21,18.90
2009,07,31,06,22,18.90
2009,07,31,06,23,18.90
2009,07,31,06,24,18.90
2009,07,31,06,25,18.90
2009,07,31,06,26,18.90
2009,07,31,06,27,18.90
2009,07,31,06,28,18.90
2009,07,31,06,29,18.90
2009,07,31,06,30,18.90
2009,07,31,06,31,19.00
2009,07,31,06,32,19.00
2009,07,31,06,33,19.00
2009,07,31,06,34,19.00
2009,07,31,06,35,19.10
2009,07,31,06,36,19.10
2009,07,31,06,37,19.10
2009,07,31,06,38,19.10
2009,07,31,06,39,19.20
2009,07,31,06,40,19.20
2009,07,31,06,41,19.20
2009,07,31,06,42,19.30
2009,07,31,06,43,19.30
2009,07,31,06,44,19.30
2009,07,31,06,45,19.40
2009,07,31,06,46,19.40
2009,07,31,06,47,19.50
2009,07,31,06,48,19.50
2009,07,31,06,49,19.60
2009,07,31,06,50,19.60
2009,07,31,06,51,19.70
2009,07,31,06,52,19.70
2009,07,31,06,53,19.70
2009,07,31,06,54,19.80
2009,07,31,06,55,19.80
2009,07,31,06,56,19.80
2009,07,31,06,57,19.70
2009,07,31,06,58,19.80
2009,07,31,06,59,19.80
2009,07,31,07,00,19.80
2009,07,31,07,01,19.80
2009,07,31,07,02,19.80
2009,07,31,07,03,19.70
2009,07,31,07,04,19.70
2009,07,31,07,05,19.60
2009,07,31,07,06,19.50
2009,07,31,07,07,19.40
2009,07,31,07,08,19.30
2009,07,31,07,09,19.30
2009,07,31,07,10,19.20
2009,07,31,07,11,19.20
2009,07,31,07,12,19.20
2009,07,31,07,13,19.20
2009,07,31,07,14,19.20
2009,07,31,07,15,19.20
2009,07,31,07,16,19.20
2009,07,31,07,17,19.20
2009,07,31,07,18,19.10
2009,07,31,07,19,19.00
2009,07,31,07,20,19.00
2009,07,31,07,21,19.00
2009,07,31,07,22,19.10
2009,07,31,07,23,19.10
2009,07,31,07,24,19.10
2009,07,31,07,25,19.20
2009,07,31,07,26,19.20
2009,07,31,07,27,19.30
2009,07,31,07,28,19.30
2009,07,31,07,29,19.30
2009,07,31,07,30,19.30
2009,07,31,07,31,19.40
2009,07,31,07,32,19.40
2009,07,31,07,33,19.40
2009,07,31,07,34,19.50
2009,07,31,07,35,19.50
2009,07,31,07,36,19.60
2009,07,31,07,37,19.60
2009,07,31,07,38,19.70
2009,07,31,07,39,19.70
2009,07,31,07,40,19.70
2009,07,31,07,41,19.80
2009,07,31,07,42,19.80
2009,07,31,07,43,19.80
2009,07,31,07,44,19.90
2009,07,31,07,45,19.90
2009,07,31,07,46,19.90
2009,07,31,07,47,19.80
2009,07,31,07,48,19.70
2009,07,31,07,49,19.70
2009,07,31,07,50,19.70
2009,07,31,07,51,19.60
2009,07,31,07,52,19.60
2009,07,31,07,53,19.60
2009,07,31,07,54,19.50
2009,07,31,07,55,19.60
2009,07,31,07,56,19.60
2009,07,31,07,57,19.60
2009,07,31,07,58,19.60
2009,07,31,07,59,19.60
2009,07,31,08,00,19.60
2009,07,31,08,01,19.60
2009,07,31,08,02,19.60
2009,07,31,08,03,19.50
2009,07,31,08,04,19.50
2009,07,31,08,05,19.50
2009,07,31,08,06,19.40
2009,07,31,08,07,19.40
2009,07,31,08,08,19.40
2009,07,31,08,09,19.50
2009,07,31,08,10,19.40
2009,07,31,08,11,19.50
2009,07,31,08,12,19.40
2009,07,31,08,13,19.50
2009,07,31,08,14,19.50
2009,07,31,08,15,19.50
2009,07,31,08,16,19.60
2009,07,31,08,17,19.60
2009,07,31,08,18,19.70
2009,07,31,08,19,19.70
2009,07,31,08,20,19.70
2009,07,31,08,21,19.80
2009,07,31,08,22,19.90
2009,07,31,08,23,20.00
2009,07,31,08,24,20.10
2009,07,31,08,25,20.20
2009,07,31,08,26,20.30
2009,07,31,08,27,20.40
2009,07,31,08,28,20.50
2009,07,31,08,29,20.60
2009,07,31,08,30,20.70
2009,07,31,08,31,20.90
2009,07,31,08,32,21.00
2009,07,31,08,33,21.20
2009,07,31,08,34,21.20
2009,07,31,08,35,21.30
2009,07,31,08,36,21.40
2009,07,31,08,37,21.50
2009,07,31,08,38,21.60
2009,07,31,08,39,21.60
2009,07,31,08,40,21.50
2009,07,31,08,41,21.40
2009,07,31,08,42,21.40
2009,07,31,08,43,21.30
2009,07,31,08,44,21.40
2009,07,31,08,45,21.40
2009,07,31,08,46,21.50
2009,07,31,08,47,21.60
2009,07,31,08,48,21.60
2009,07,31,08,49,21.50
2009,07,31,08,50,21.40
2009,07,31,08,51,21.30
2009,07,31,08,52,21.30
2009,07,31,08,53,21.30
2009,07,31,08,54,21.30
2009,07,31,08,55,21.40
2009,07,31,08,56,21.50
2009,07,31,08,57,21.60
2009,07,31,08,58,21.60
2009,07,31,08,59,21.60
2009,07,31,09,00,21.70
2009,07,31,09,01,21.70
2009,07,31,09,02,21.70
2009,07,31,09,03,21.70
2009,07,31,09,04,21.70
2009,07,31,09,05,21.80
2009,07,31,09,06,21.80
2009,07,31,09,07,21.80
2009,07,31,09,08,21.80
2009,07,31,09,09,21.90
2009,07,31,09,10,22.00
2009,07,31,09,11,22.00
2009,07,31,09,12,22.00
2009,07,31,09,13,22.10
2009,07,31,09,14,22.10
2009,07,31,09,15,22.10
2009,07,31,09,16,22.10
2009,07,31,09,17,22.00
2009,07,31,09,18,22.00
2009,07,31,09,19,22.10
2009,07,31,09,20,22.10
2009,07,31,09,21,22.20
2009,07,31,09,22,22.20
2009,07,31,09,23,22.30
2009,07,31,09,24,22.30
2009,07,31,09,25,22.30
2009,07,31,09,26,22.30
2009,07,31,09,27,22.40
2009,07,31,09,28,22.40
2009,07,31,09,29,22.50
2009,07,31,09,30,22.40
2009,07,31,09,31,22.30
2009,07,31,09,32,22.30
2009,07,31,09,33,22.20
2009,07,31,09,34,22.20
2009,07,31,09,35,22.20
2009,07,31,09,36,22.20
2009,07,31,09,37,22.20
2009,07,31,09,38,22.20
2009,07,31,09,39,22.30
2009,07,31,09,40,22.30
2009,07,31,09,41,22.40
2009,07,31,09,42,22.50
2009,07,31,09,43,22.60
2009,07,31,09,44,22.70
2009,07,31,09,45,22.60
2009,07,31,09,46,22.60
2009,07,31,09,47,22.70
2009,07,31,09,48,22.60
2009,07,31,09,49,22.50
2009,07,31,09,50,22.40
2009,07,31,09,51,22.40
2009,07,31,09,52,22.40
2009,07,31,09,53,22.50
2009,07,31,09,54,22.50
2009,07,31,09,55,22.60
2009,07,31,09,56,22.60
2009,07,31,09,57,22.70
2009,07,31,09,58,22.60
2009,07,31,09,59,22.60
2009,07,31,10,00,22.70
2009,07,31,10,01,22.70
2009,07,31,10,02,22.70
2009,07,31,10,03,22.70
2009,07,31,10,04,22.70
2009,07,31,10,05,22.60
2009,07,31,10,06,22.60
2009,07,31,10,07,22.60
2009,07,31,10,08,22.60
2009,07,31,10,09,22.60
2009,07,31,10,10,22.60
2009,07,31,10,11,22.60
2009,07,31,10,12,22.60
2009,07,31,10,13,22.60
2009,07,31,10,14,22.60
2009,07,31,10,15,22.50
2009,07,31,10,16,22.50
2009,07,31,10,17,22.50
2009,07,31,10,18,22.40
2009,07,31,10,19,22.30
2009,07,31,10,20,22.20
2009,07,31,10,21,22.20
2009,07,31,10,22,22.30
2009,07,31,10,23,22.30
2009,07,31,10,24,22.30
2009,07,31,10,25,22.20
2009,07,31,10,26,22.20
2009,07,31,10,27,22.10
2009,07,31,10,28,22.10
2009,07,31,10,29,22.10
2009,07,31,10,30,22.00
2009,07,31,10,31,22.10
2009,07,31,10,32,22.10
2009,07,31,10,33,22.20
2009,07,31,10,34,22.20
2009,07,31,10,35,22.20
2009,07,31,10,36,22.30
2009,07,31,10,37,22.30
2009,07,31,10,38,22.30
2009,07,31,10,39,22.30
2009,07,31,10,40,22.30
2009,07,31,10,41,22.30
2009,07,31,10,42,22.20
2009,07,31,10,43,22.20
2009,07,31,10,44,22.10
2009,07,31,10,45,22.10
2009,07,31,10,46,22.10
2009,07,31,10,47,22.00
2009,07,31,10,48,22.00
2009,07,31,10,49,22.00
2009,07,31,10,50,22.10
2009,07,31,10,51,22.00
2009,07,31,10,52,22.00
2009,07,31,10,53,21.90
2009,07,31,10,54,21.80
2009,07,31,10,55,21.90
2009,07,31,10,56,22.00
2009,07,31,10,57,22.10
2009,07,31,10,58,22.20
2009,07,31,10,59,22.30
2009,07,31,11,00,22.40
2009,07,31,11,01,22.40
2009,07,31,11,02,22.50
2009,07,31,11,03,22.50
2009,07,31,11,04,22.50
2009,07,31,11,05,22.30
2009,07,31,11,06,22.30
2009,07,31,11,07,22.30
2009,07,31,11,08,22.30
2009,07,31,11,09,22.30
2009,07,31,11,10,22.20
2009,07,31,11,11,22.10
2009,07,31,11,12,22.00
2009,07,31,11,13,22.00
2009,07,31,11,14,22.00
2009,07,31,11,15,22.00
2009,07,31,11,16,22.00
2009,07,31,11,17,22.10
2009,07,31,11,18,22.20
2009,07,31,11,19,22.20
2009,07,31,11,20,22.10
2009,07,31,11,21,22.00
2009,07,31,11,22,22.00
2009,07,31,11,23,21.90
2009,07,31,11,24,21.90
2009,07,31,11,25,22.00
2009,07,31,11,26,22.10
2009,07,31,11,27,22.10
2009,07,31,11,28,22.20
2009,07,31,11,29,22.30
2009,07,31,11,30,22.30
2009,07,31,11,31,22.40
2009,07,31,11,32,22.40
2009,07,31,11,33,22.50
2009,07,31,11,34,22.60
2009,07,31,11,35,22.70
2009,07,31,11,36,22.80
2009,07,31,11,37,22.80
2009,07,31,11,38,22.90
2009,07,31,11,39,23.00
2009,07,31,11,40,23.10
2009,07,31,11,41,23.10
2009,07,31,11,42,23.20
2009,07,31,11,43,23.30
2009,07,31,11,44,23.30
2009,07,31,11,45,23.30
2009,07,31,11,46,23.40
2009,07,31,11,47,23.40
2009,07,31,11,48,23.50
2009,07,31,11,49,23.50
2009,07,31,11,50,23.50
2009,07,31,11,51,23.60
2009,07,31,11,52,23.70
2009,07,31,11,53,23.70
2009,07,31,11,54,23.80
2009,07,31,11,55,23.80
2009,07,31,11,56,23.80
2009,07,31,11,57,23.70
2009,07,31,11,58,23.70
2009,07,31,11,59,23.70
2009,07,31,12,00,23.80
2009,07,31,12,01,23.80
2009,07,31,12,02,23.70
2009,07,31,12,03,23.70
2009,07,31,12,04,23.70
2009,07,31,12,05,23.70
2009,07,31,12,06,23.80
2009,07,31,12,07,23.90
2009,07,31,12,08,24.00
2009,07,31,12,09,24.00
2009,07,31,12,10,24.10
2009,07,31,12,11,24.10
2009,07,31,12,12,24.00
2009,07,31,12,13,24.10
2009,07,31,12,14,24.20
2009,07,31,12,15,24.40
2009,07,31,12,16,24.50
2009,07,31,12,17,24.70
2009,07,31,12,18,24.80
2009,07,31,12,19,24.90
2009,07,31,12,20,24.90
2009,07,31,12,21,24.70
2009,07,31,12,22,24.60
2009,07,31,12,23,24.60
2009,07,31,12,24,24.60
2009,07,31,12,25,24.60
2009,07,31,12,26,24.70
2009,07,31,12,27,24.80
2009,07,31,12,28,24.90
2009,07,31,12,29,25.00
2009,07,31,12,30,25.00
2009,07,31,12,31,24.90
2009,07,31,12,32,24.90
2009,07,31,12,33,24.90
2009,07,31,12,34,25.00
2009,07,31,12,35,24.90
2009,07,31,12,36,24.90
2009,07,31,12,37,25.00
2009,07,31,12,38,25.10
2009,07,31,12,39,25.10
2009,07,31,12,40,25.00
2009,07,31,12,41,24.90
2009,07,31,12,42,24.70
2009,07,31,12,43,24.60
2009,07,31,12,44,24.40
2009,07,31,12,45,24.40
2009,07,31,12,46,24.40
2009,07,31,12,47,24.50
2009,07,31,12,48,24.50
2009,07,31,12,49,24.60
2009,07,31,12,50,24.70
2009,07,31,12,51,24.80
2009,07,31,12,52,24.80
2009,07,31,12,53,24.70
2009,07,31,12,54,24.60
2009,07,31,12,55,24.50
2009,07,31,12,56,24.50
2009,07,31,12,57,24.50
2009,07,31,12,58,24.50
2009,07,31,12,59,24.70
2009,07,31,13,00,24.80
2009,07,31,13,01,25.00
2009,07,31,13,02,25.10
2009,07,31,13,03,25.20
2009,07,31,13,04,25.30
2009,07,31,13,05,25.40
2009,07,31,13,06,25.40
2009,07,31,13,07,25.40
2009,07,31,13,08,25.40
2009,07,31,13,09,25.30
2009,07,31,13,10,25.20
2009,07,31,13,11,25.20
2009,07,31,13,12,25.20
2009,07,31,13,13,25.20
2009,07,31,13,14,25.10
2009,07,31,13,15,25.10
2009,07,31,13,16,25.10
2009,07,31,13,17,25.00
2009,07,31,13,18,25.00
2009,07,31,13,19,25.10
2009,07,31,13,20,25.00
2009,07,31,13,21,24.90
2009,07,31,13,22,25.00
2009,07,31,13,23,25.10
2009,07,31,13,24,25.10
2009,07,31,13,25,25.10
2009,07,31,13,26,25.10
2009,07,31,13,27,25.20
2009,07,31,13,28,25.30
2009,07,31,13,29,25.40
2009,07,31,13,30,25.40
2009,07,31,13,31,25.30
2009,07,31,13,32,25.20
2009,07,31,13,33,25.00
2009,07,31,13,34,25.00
2009,07,31,13,35,25.00
2009,07,31,13,36,25.00
2009,07,31,13,37,25.10
2009,07,31,13,38,25.20
2009,07,31,13,39,25.20
2009,07,31,13,40,25.20
2009,07,31,13,41,25.20
2009,07,31,13,42,25.20
2009,07,31,13,43,25.20
2009,07,31,13,44,25.20
2009,07,31,13,45,25.30
2009,07,31,13,46,25.40
2009,07,31,13,47,25.40
2009,07,31,13,48,25.50
2009,07,31,13,49,25.50
2009,07,31,13,50,25.50
2009,07,31,13,51,25.60
2009,07,31,13,52,25.60
2009,07,31,13,53,25.60
2009,07,31,13,54,25.60
2009,07,31,13,55,25.80
2009,07,31,13,56,25.90
2009,07,31,13,57,25.90
2009,07,31,13,58,25.90
2009,07,31,13,59,26.00
2009,07,31,14,00,26.00
2009,07,31,14,01,25.90
2009,07,31,14,02,25.90
2009,07,31,14,03,25.90
2009,07,31,14,04,25.90
2009,07,31,14,05,25.90
2009,07,31,14,06,25.90
2009,07,31,14,07,25.90
2009,07,31,14,08,25.90
2009,07,31,14,09,25.90
2009,07,31,14,10,26.00
2009,07,31,14,11,26.10
2009,07,31,14,12,26.10
2009,07,31,14,13,26.10
2009,07,31,14,14,26.10
2009,07,31,14,15,26.20
2009,07,31,14,16,26.40
2009,07,31,14,17,26.40
2009,07,31,14,18,26.50
2009,07,31,14,19,26.60
2009,07,31,14,20,26.70
2009,07,31,14,21,26.70
2009,07,31,14,22,26.70
2009,07,31,14,23,26.60
2009,07,31,14,24,26.50
2009,07,31,14,25,26.50
2009,07,31,14,26,26.60
2009,07,31,14,27,26.70
2009,07,31,14,28,26.90
2009,07,31,14,29,27.00
2009,07,31,14,30,27.00
2009,07,31,14,31,26.90
2009,07,31,14,32,26.90
2009,07,31,14,33,26.90
2009,07,31,14,34,26.90
2009,07,31,14,35,27.00
2009,07,31,14,36,26.90
2009,07,31,14,37,26.80
2009,07,31,14,38,26.80
2009,07,31,14,39,26.90
2009,07,31,14,40,27.00
2009,07,31,14,41,27.10
2009,07,31,14,42,27.20
2009,07,31,14,43,27.20
2009,07,31,14,44,27.10
2009,07,31,14,45,27.10
2009,07,31,14,46,27.10
2009,07,31,14,47,27.10
2009,07,31,14,48,27.10
2009,07,31,14,49,27.10
2009,07,31,14,50,27.00
2009,07,31,14,51,27.00
2009,07,31,14,52,27.10
2009,07,31,14,53,27.00
2009,07,31,14,54,27.00
2009,07,31,14,55,26.90
2009,07,31,14,56,26.90
2009,07,31,14,57,27.00
2009,07,31,14,58,27.10
2009,07,31,14,59,27.30
2009,07,31,15,00,27.40
2009,07,31,15,01,27.50
2009,07,31,15,02,27.60
2009,07,31,15,03,27.60
2009,07,31,15,04,27.60
2009,07,31,15,05,27.60
2009,07,31,15,06,27.40
2009,07,31,15,07,27.30
2009,07,31,15,08,27.10
2009,07,31,15,09,27.10
2009,07,31,15,10,27.20
2009,07,31,15,11,27.20
2009,07,31,15,12,27.30
2009,07,31,15,13,27.30
2009,07,31,15,14,27.30
2009,07,31,15,15,27.30
2009,07,31,15,16,27.30
2009,07,31,15,17,27.30
2009,07,31,15,18,27.20
2009,07,31,15,19,27.20
2009,07,31,15,20,27.10
2009,07,31,15,21,27.10
2009,07,31,15,22,27.10
2009,07,31,15,23,27.10
2009,07,31,15,24,27.20
2009,07,31,15,25,27.20
2009,07,31,15,26,27.30
2009,07,31,15,27,27.30
2009,07,31,15,28,27.40
2009,07,31,15,29,27.50
2009,07,31,15,30,27.60
2009,07,31,15,31,27.60
2009,07,31,15,32,27.50
2009,07,31,15,33,27.40
2009,07,31,15,34,27.30
2009,07,31,15,35,27.40
2009,07,31,15,36,27.40
2009,07,31,15,37,27.50
2009,07,31,15,38,27.70
2009,07,31,15,39,27.70
2009,07,31,15,40,27.80
2009,07,31,15,41,27.80
2009,07,31,15,42,27.80
2009,07,31,15,43,27.80
2009,07,31,15,44,27.80
2009,07,31,15,45,27.80
2009,07,31,15,46,27.80
2009,07,31,15,47,27.80
2009,07,31,15,48,27.60
2009,07,31,15,49,27.40
2009,07,31,15,50,27.30
2009,07,31,15,51,27.20
2009,07,31,15,52,27.20
2009,07,31,15,53,27.30
2009,07,31,15,54,27.30
2009,07,31,15,55,27.40
2009,07,31,15,56,27.50
2009,07,31,15,57,27.60
2009,07,31,15,58,27.50
2009,07,31,15,59,27.40
2009,07,31,16,00,27.50
2009,07,31,16,01,27.60
2009,07,31,16,02,27.60
2009,07,31,16,03,27.60
2009,07,31,16,04,27.60
2009,07,31,16,05,27.60
2009,07,31,16,06,27.60
2009,07,31,16,07,27.60
2009,07,31,16,08,27.50
2009,07,31,16,09,27.40
2009,07,31,16,10,27.30
2009,07,31,16,11,27.20
2009,07,31,16,12,27.20
2009,07,31,16,13,27.20
2009,07,31,16,14,27.20
2009,07,31,16,15,27.20
2009,07,31,16,16,27.30
2009,07,31,16,17,27.30
2009,07,31,16,18,27.40
2009,07,31,16,19,27.40
2009,07,31,16,20,27.40
2009,07,31,16,21,27.40
2009,07,31,16,22,27.30
2009,07,31,16,23,27.40
2009,07,31,16,24,27.40
2009,07,31,16,25,27.40
2009,07,31,16,26,27.50
2009,07,31,16,27,27.50
2009,07,31,16,28,27.60
2009,07,31,16,29,27.60
2009,07,31,16,30,27.60
2009,07,31,16,31,27.60
2009,07,31,16,32,27.70
2009,07,31,16,33,27.80
2009,07,31,16,34,27.80
2009,07,31,16,35,27.90
2009,07,31,16,36,28.00
2009,07,31,16,37,28.10
2009,07,31,16,38,28.10
2009,07,31,16,39,28.10
2009,07,31,16,40,28.10
2009,07,31,16,41,28.10
2009,07,31,16,42,28.10
2009,07,31,16,43,28.10
2009,07,31,16,44,28.10
2009,07,31,16,45,28.10
2009,07,31,16,46,28.00
2009,07,31,16,47,28.00
2009,07,31,16,48,28.00
2009,07,31,16,49,28.00
2009,07,31,16,50,28.00
2009,07,31,16,51,27.90
2009,07,31,16,52,27.90
2009,07,31,16,53,27.80
2009,07,31,16,54,27.80
2009,07,31,16,55,27.80
2009,07,31,16,56,27.80
2009,07,31,16,57,27.70
2009,07,31,16,58,27.80
2009,07,31,16,59,27.80
2009,07,31,17,00,27.90
2009,07,31,17,01,27.90
2009,07,31,17,02,27.90
2009,07,31,17,03,27.80
2009,07,31,17,04,27.80
2009,07,31,17,05,27.80
2009,07,31,17,06,27.80
2009,07,31,17,07,27.70
2009,07,31,17,08,27.70
2009,07,31,17,09,27.70
2009,07,31,17,10,27.60
2009,07,31,17,11,27.70
2009,07,31,17,12,27.70
2009,07,31,17,13,27.60
2009,07,31,17,14,27.60
2009,07,31,17,15,27.70
2009,07,31,17,16,27.80
2009,07,31,17,17,27.80
2009,07,31,17,18,27.80
2009,07,31,17,19,27.80